Погода в Елово

Россия / Пермский край     57°02′48″N   54°55′17″E
темп.,
°C
ветер,
м/с
пор.,
м/с
влажн.,
%
обл.,
%
осадки,
мм/ч
давл.,
гПа
погр.,
м
7 марта, вс
вс723:00−15зюз239799 0.2 101232
02:00−16зюз229799 0.1 101121
05:00−16ююз229798 0.2 101124
08:00−17юз2297100 0.1 101033
11:00−14зюз239295 0.1 1010285
14:00−11з2384100 0.1 1009608
17:00−11зюз2381100 0.1 1008727
20:00−15ююз239488 0.0 100821
8 марта, пн
пн823:00−17ю349769 0.0 100861
02:00−17ююв389788 0.0 1006161
05:00−15ююв6129594 0.1 1004268
08:00−14ююв71293100 0.5 1000463
11:00−10ююв81291100 0.8 998618
14:00−5ююв81391100 0.4 995856
17:00−5юз101593100 1.2 9941148
20:00−8юз8178099 0.2 996598
9 марта, вт
вт923:00−10юз6139376 0.2 998397
02:00−13ююз589562 0.0 999147
05:00−14юз349768 0.0 100049
08:00−16з339897 0.1 100258
11:00−12зсз459597 0.1 1005275
14:00−9зсз4588100 0.1 1008611
17:00−9зсз3487100 0.2 1009715
20:00−14ссз1197100 0.1 101020
10 марта, ср
ср1023:00−15св3397100 0.1 101241
02:00−18ссв479997 0.0 1012126
05:00−22ссв5109795 0.1 1011210
08:00−25ссв6119595 0.0 1012247
11:00−23с7119297 0.0 1012328
14:00−20с81383100 0.0 1011501
17:00−18с81382100 0.0 1012657
20:00−20с61388100 0.0 1014592
11 марта, чт
чт1123:00−23с51492100 0.0 1015416
02:00−25ссз349883 0.0 101573
05:00−27сз2310077 0.0 101722
08:00−27зсз3310075 0.0 101828
11:00−22сз349576 0.0 1019244
14:00−16зсз459099 0.0 1019438
17:00−14зсз4791100 0.1 1019480
20:00−14з4896100 0.2 1020249